Stations météo

Publicité
Saarbrücken-Ensheim, Allemagne (10708): Température de l'air & dewpoint: 18.02.2020 21:00:00 - 24.02.2020 21:00:00 (CET)Saarbrücken-Ensheim, Allemagne (10708): Température de l'air 5cm & Température de l'air -5cm: 18.02.2020 21:00:00 - 24.02.2020 21:00:00 (CET)Saarbrücken-Ensheim, Allemagne (10708): Température de l'air -20cm & Température de l'air -100cm: 18.02.2020 21:00:00 - 24.02.2020 21:00:00 (CET)Saarbrücken-Ensheim, Allemagne (10708): Vitesse du vent & gusts: 18.02.2020 21:00:00 - 24.02.2020 21:00:00 (CET)Saarbrücken-Ensheim, Allemagne (10708): Direction du vent: 18.02.2020 21:00:00 - 24.02.2020 21:00:00 (CET)Saarbrücken-Ensheim, Allemagne (10708): reduced air pressure: 18.02.2020 21:00:00 - 24.02.2020 21:00:00 (CET)Saarbrücken-Ensheim, Allemagne (10708): visibility: 18.02.2020 21:00:00 - 24.02.2020 21:00:00 (CET)Saarbrücken-Ensheim, Allemagne (10708): Ensoleillement: 18.02.2020 21:00:00 - 24.02.2020 21:00:00 (CET)Saarbrücken-Ensheim, Allemagne (10708): Quantités de précipitations: 18.02.2020 21:00:00 - 24.02.2020 21:00:00 (CET)
Date & Time tt [°C] td [°C] tt 5cm [°C] tt -5cm [°C] tt -20cm [°C] tt -100cm [°C] ff [km/h] ff [knt] fx [km/h] fx [knt] dd ppp [hPa] vv [km] sd [min] rr [mm]
24.02.2020 21:00:00 9,6 5,2 8,8 7,9 7,8 6,6 37 20 51 27 W 1013,2 40 0 0,0
24.02.2020 20:00:00 10,3 5,3 8,8 8,3 7,8 6,6 36 20 53 29 W 1013,0 40 0 0,0
24.02.2020 19:00:00 10,7 7,5 9,4 8,7 7,8 6,6 21 11 31 17 WSW 1012,7 10 0 0,0
24.02.2020 18:00:00 10,8 7,6 9,3 9,1 7,8 6,6 24 13 41 22 WSW 1012,5 40 13 0,0
24.02.2020 17:00:00 11,1 8,5 10,1 9,4 7,7 6,6 29 16 46 25 SW 1013,5 10 0 0,0
24.02.2020 16:00:00 10,7 8,3 9,8 9,3 7,5 6,6 26 14 41 22 SW 1014,7 10 0 0,0
24.02.2020 15:00:00 10,3 8,5 9,9 9,3 7,3 6,6 22 12 46 25 SW 1016,0 10 0 0,0
24.02.2020 14:00:00 10,2 8,7 10,0 9,0 7,0 6,6 30 16 51 27 SW 1017,4 30 0 0,0
24.02.2020 13:00:00 9,2 8,5 9,1 8,2 6,8 6,6 26 14 36 19 SW 1019,1 5 0 0,0
24.02.2020 12:00:00 7,3 7,0 7,4 7,5 6,7 6,6 15 8 26 14 SW 1020,9 2,3 0 0,2
24.02.2020 11:00:00 6,0 5,5 6,3 6,9 6,6 6,6 11 6 20 11 SSW 1022,1 1,8 0 0,3
24.02.2020 10:00:00 5,1 4,6 5,4 6,3 6,6 6,6 11 6 16 9 SSE 1023,3 1,8 0 0,7
24.02.2020 09:00:00 4,6 4,2 4,7 6,0 6,6 6,6 11 6 13 7 SSE 1024,3 2,8 0 0,1
24.02.2020 08:00:00 4,3 3,8 4,2 5,8 6,7 6,6 7 4 11 6 S 1024,9 3,5 0 0,5
24.02.2020 07:00:00 4,5 3,9 4,4 5,9 6,8 6,6 3 2 9 5 W 1025,6 8 0 0,5
24.02.2020 06:00:00 4,7 3,8 4,4 6,1 7,0 6,6 11 6 13 7 WSW 1026,0 8 0 0,2
24.02.2020 05:00:00 5,3 3,8 4,8 6,4 7,1 6,6 8 4 11 6 WSW 1026,2 13 0 0,6
24.02.2020 04:00:00 5,8 4,8 5,3 6,6 7,2 6,6 2 1 9 5 - 1026,0 10 0 0,5
24.02.2020 03:00:00 5,9 4,6 5,4 6,8 7,4 6,6 6 3 13 7 WSW 1026,2 30 0 0,0
24.02.2020 02:00:00 6,1 4,9 5,6 7,1 7,5 6,6 11 6 34 18 W 1026,0 10 0 0,1
24.02.2020 01:00:00 6,7 5,6 6,3 7,6 7,6 6,5 21 11 41 22 WNW 1025,8 10 0 0,3
24.02.2020 00:00:00 8,1 7,0 7,6 8,5 7,6 6,5 28 15 44 24 NW 1024,4 5 0 1,1
23.02.2020 23:00:00 9,7 8,9 9,2 8,8 7,5 6,5 29 16 53 29 W 1023,1 4,5 0 2,5
23.02.2020 22:00:00 10,4 9,3 9,6 8,7 7,5 6,5 37 20 61 33 WSW 1022,0 5 0 0,3
23.02.2020 21:00:00 10,4 8,9 9,5 8,6 7,4 6,5 41 22 66 35 WSW 1021,0 12 0 0,1
23.02.2020 20:00:00 10,4 8,6 9,4 8,5 7,4 6,5 41 22 67 36 WSW 1020,6 8 0 0,0
23.02.2020 19:00:00 10,5 8,1 9,6 8,5 7,4 6,5 42 23 70 38 WSW 1020,2 10 0 0,0
23.02.2020 18:00:00 10,6 7,7 9,9 8,5 7,4 6,5 42 23 63 34 WSW 1019,9 10 0 0,0
23.02.2020 17:00:00 10,6 7,4 10,0 8,7 7,3 6,5 44 24 71 38 WSW 1019,7 10 0 0,0
23.02.2020 16:00:00 10,5 7,3 10,2 8,9 7,2 6,5 48 26 74 40 WSW 1019,1 10 0 0,0
23.02.2020 15:00:00 10,9 7,5 10,5 9,0 7,0 6,5 45 25 70 38 WSW 1019,2 50 0 0,0
23.02.2020 14:00:00 10,8 7,5 10,5 8,6 6,8 6,5 48 26 72 39 WSW 1020,0 10 0 0,0
23.02.2020 13:00:00 10,1 7,3 9,8 8,3 6,7 6,5 45 24 72 39 WSW 1020,6 50 0 0,0
23.02.2020 12:00:00 9,9 7,0 9,6 7,9 6,5 6,5 40 22 62 34 WSW 1021,3 45 0 0,0
23.02.2020 11:00:00 8,9 6,5 8,6 7,5 6,4 6,5 42 23 62 34 SW 1021,4 10 0 0,0
23.02.2020 10:00:00 8,7 6,1 8,1 7,1 6,3 6,5 37 20 58 31 SW 1021,7 40 0 0,0
23.02.2020 09:00:00 7,8 6,3 7,3 6,7 6,3 6,5 29 16 48 26 SSW 1022,7 10 0 0,0
23.02.2020 08:00:00 7,5 6,1 6,9 6,6 6,3 6,5 29 16 49 27 SSW 1023,3 10 0 0,0
23.02.2020 07:00:00 7,7 6,2 7,1 6,6 6,2 6,5 29 16 42 23 SW 1024,5 10 0 0,0
23.02.2020 06:00:00 7,9 6,5 7,2 6,6 6,2 6,5 26 14 41 22 SW 1025,0 10 0 0,0
23.02.2020 05:00:00 7,9 6,5 7,1 6,5 6,2 6,5 29 16 41 22 SW 1025,5 10 0 0,1
23.02.2020 04:00:00 7,9 6,5 7,0 6,5 6,1 6,5 28 15 39 21 WSW 1026,3 15 0 0,4
23.02.2020 03:00:00 7,9 6,3 7,0 6,5 6,1 6,5 26 14 41 22 SW 1026,9 15 0 0,2
23.02.2020 02:00:00 8,0 5,6 7,1 6,3 6,1 6,5 29 15 42 23 SW 1027,4 25 0 0,0
23.02.2020 01:00:00 7,8 5,4 6,8 6,3 6,1 6,6 28 15 42 23 SW 1027,4 10 0 0,1
23.02.2020 00:00:00 8,0 5,2 6,7 6,3 6,2 6,6 26 14 41 22 SW 1027,5 25 0 0,3
22.02.2020 23:00:00 8,6 4,4 7,6 6,4 6,2 6,6 26 14 42 23 SW 1028,1 10 0 0,0
22.02.2020 22:00:00 8,2 4,4 6,8 6,4 6,2 6,6 27 14 44 24 SW 1028,1 25 0 0,1
22.02.2020 21:00:00 8,5 3,9 7,2 6,5 6,3 6,6 26 14 39 21 WSW 1028,2 10 0 0,0
22.02.2020 20:00:00 9,2 3,0 6,9 6,7 6,4 6,6 25 13 39 21 WSW 1027,7 25 0 0,1
22.02.2020 19:00:00 9,9 2,0 8,8 7,0 6,5 6,6 18 10 29 16 WSW 1026,5 35 0 0,0
22.02.2020 18:00:00 9,8 2,8 8,8 7,5 6,5 6,6 18 10 32 17 SW 1026,4 35 0 0,0
22.02.2020 17:00:00 9,6 2,5 9,2 8,1 6,4 6,6 18 10 34 18 SW 1025,9 10 0 0,0
22.02.2020 16:00:00 9,6 2,4 9,2 8,6 6,3 6,6 26 14 42 23 SW 1026,1 10 0 0,0
22.02.2020 15:00:00 9,4 1,5 9,3 9,4 6,0 6,6 30 16 44 24 SW 1026,1 35 0 0,0
22.02.2020 14:00:00 9,4 1,2 10,6 10,6 5,3 6,6 29 16 48 26 SW 1026,3 10 53 0,0
22.02.2020 13:00:00 9,2 1,5 11,6 10,0 4,6 6,6 29 16 47 25 SSW 1027,1 10 56 0,0
22.02.2020 12:00:00 7,9 1,0 10,1 8,1 3,9 6,6 34 18 48 26 WSW 1028,5 10 59 0,0
22.02.2020 11:00:00 6,0 0,2 7,4 6,0 3,4 6,6 29 16 46 25 SW 1028,6 35 60 0,0
22.02.2020 10:00:00 4,2 -0,5 4,4 3,0 3,2 6,6 28 15 42 23 SW 1030,2 10 60 0,0
22.02.2020 09:00:00 2,8 -1,1 2,2 0,7 3,2 6,6 26 14 35 19 SW 1030,1 30 54 0,0
22.02.2020 08:00:00 1,2 -1,8 -0,3 0,7 3,3 6,6 18 10 35 19 SW 1029,5 10 9 0,0
22.02.2020 07:00:00 1,2 -1,8 -0,1 0,7 3,4 6,6 24 13 37 20 SSW 1028,7 10 0 0,0
22.02.2020 06:00:00 1,1 -1,7 -0,3 0,8 3,6 6,6 22 12 35 19 SW 1029,7 50 0 0,0
22.02.2020 05:00:00 1,6 -1,5 0,2 0,7 3,7 6,6 21 11 28 15 SW 1029,7 10 0 0,0
22.02.2020 04:00:00 2,0 -1,3 0,4 0,8 3,9 6,6 21 11 28 15 SSW 1029,7 10 0 0,0
22.02.2020 03:00:00 2,4 -1,2 0,6 1,1 4,2 6,6 22 12 34 18 SW 1030,2 50 0 0,0
22.02.2020 02:00:00 2,7 -1,1 1,1 1,4 4,4 6,6 22 12 29 15 SW 1030,1 50 0 0,0
22.02.2020 01:00:00 3,3 -0,7 1,7 1,7 4,6 6,6 22 12 29 16 SSW 1030,1 10 0 0,0
22.02.2020 00:00:00 3,3 -0,8 1,6 2,1 4,9 6,6 15 8 26 14 SSW 1030,4 10 0 0,0
21.02.2020 23:00:00 3,6 -0,6 1,9 2,4 5,1 6,6 13 7 21 11 SW 1031,0 50 0 0,0
21.02.2020 22:00:00 3,6 -0,6 1,5 2,7 5,4 6,6 14 7 22 12 SW 1031,0 50 0 0,0
21.02.2020 21:00:00 4,6 -0,7 2,7 3,2 5,7 6,6 13 7 24 13 SW 1030,9 10 0 0,0
21.02.2020 20:00:00 4,7 -1,1 2,3 3,7 6,1 6,6 14 8 20 11 WSW 1030,8 50 0 0,0
21.02.2020 19:00:00 4,8 -0,9 1,7 4,6 6,4 6,6 13 7 21 11 SW 1030,4 40 0 0,0
21.02.2020 18:00:00 6,3 -1,2 4,3 6,1 6,6 6,6 15 8 29 16 WSW 1030,2 40 0 0,0
21.02.2020 17:00:00 6,7 -1,2 6,1 7,1 6,6 6,6 22 12 35 19 SW 1030,1 40 9 0,0
21.02.2020 16:00:00 7,0 -1,2 7,1 9,0 6,4 6,6 26 14 41 22 WSW 1030,2 10 30 0,0
21.02.2020 15:00:00 7,5 -1,2 9,3 9,4 6,0 6,6 28 15 42 23 WSW 1030,3 50 33 0,0
21.02.2020 14:00:00 6,9 -0,7 8,5 8,2 5,7 6,6 24 13 35 19 SW 1031,1 10 4 0,0
21.02.2020 13:00:00 6,4 0,0 7,9 8,5 5,2 6,6 22 12 34 18 WSW 1031,5 40 25 0,0
21.02.2020 12:00:00 5,2 0,6 5,8 7,6 4,7 6,6 22 12 34 18 SW 1031,8 40 31 0,0
21.02.2020 11:00:00 4,6 1,3 6,0 5,6 4,3 6,6 21 11 28 15 SW 1031,4 10 18 0,0
21.02.2020 10:00:00 3,0 1,0 3,9 3,9 4,2 6,6 18 10 28 15 SW 1031,2 10 21 0,0
21.02.2020 09:00:00 2,0 0,2 1,9 2,7 4,2 6,6 18 10 25 13 WSW 1031,3 30 22 0,0
21.02.2020 08:00:00 1,7 0,1 1,2 2,2 4,4 6,6 15 8 27 15 SW 1030,5 10 0 0,0
21.02.2020 07:00:00 2,3 0,3 1,6 2,3 4,5 6,6 21 11 35 19 WSW 1029,5 10 0 0,0
21.02.2020 06:00:00 2,4 -0,1 1,3 2,3 4,7 6,6 16 9 29 16 WSW 1028,8 10 0 0,0
21.02.2020 05:00:00 2,9 0,3 2,3 2,5 4,9 6,6 18 10 28 15 W 1027,7 10 0 0,0
21.02.2020 04:00:00 2,8 0,0 0,8 2,5 5,1 6,6 16 9 36 20 W 1026,8 40 0 0,0
21.02.2020 03:00:00 3,9 -1,0 2,2 3,5 5,3 6,6 22 12 35 19 W 1025,9 10 0 0,0
21.02.2020 02:00:00 4,3 1,1 3,5 4,0 5,5 6,5 21 11 40 22 W 1024,7 40 0 0,0
21.02.2020 01:00:00 4,2 1,4 2,5 4,3 5,6 6,6 29 16 49 27 W 1023,1 10 0 0,0
21.02.2020 00:00:00 4,7 1,4 3,0 4,7 5,7 6,6 31 17 61 33 W 1021,3 10 0 0,0
20.02.2020 23:00:00 6,3 3,5 5,1 5,4 5,8 6,6 41 22 70 38 W 1018,9 10 0 1,3
20.02.2020 22:00:00 6,4 3,9 5,2 5,4 5,8 6,6 31 17 55 30 SW 1017,3 10 0 0,6
20.02.2020 21:00:00 8,0 1,7 6,9 5,3 5,9 6,6 32 18 55 30 SW 1017,0 50 0 0,0
20.02.2020 20:00:00 7,9 1,0 7,0 5,4 6,0 6,6 35 19 55 30 SW 1017,7 10 0 0,0
20.02.2020 19:00:00 7,6 1,0 6,6 5,5 6,1 6,6 26 14 51 28 SW 1018,1 10 0 0,0
20.02.2020 18:00:00 7,5 1,2 6,6 5,9 6,2 6,6 35 19 51 28 SW 1018,3 10 0 0,0
20.02.2020 17:00:00 7,4 1,7 6,7 6,4 6,2 6,6 28 15 40 22 SW 1019,0 10 0 0,0
20.02.2020 16:00:00 7,5 1,9 7,2 6,8 6,2 6,6 26 14 43 23 SW 1019,6 10 0 0,0
20.02.2020 15:00:00 7,5 2,5 7,3 7,1 6,2 6,6 23 12 40 22 SW 1019,7 50 0 0,0
20.02.2020 14:00:00 7,4 2,6 7,2 7,7 6,0 6,6 27 15 46 25 SW 1020,5 40 0 0,0
20.02.2020 13:00:00 7,8 2,3 7,6 8,4 5,6 6,6 31 17 50 27 SW 1021,0 10 9 0,0
20.02.2020 12:00:00 7,2 3,6 7,6 7,8 5,2 6,5 29 16 42 23 SW 1021,7 40 15 0,0
20.02.2020 11:00:00 6,3 4,2 6,4 5,8 5,0 6,6 21 11 36 19 SSW 1022,1 10 0 0,0
20.02.2020 10:00:00 5,6 4,3 5,3 5,2 4,8 6,5 23 13 36 20 SW 1022,5 30 0 0,0
20.02.2020 09:00:00 5,3 4,3 5,0 4,7 4,8 6,6 18 10 31 17 SSW 1022,5 10 0 0,0
20.02.2020 08:00:00 4,8 4,0 4,5 4,2 4,7 6,6 21 12 34 18 SW 1022,4 12 0 0,0
20.02.2020 07:00:00 4,4 3,9 4,1 4,0 4,7 6,6 21 12 35 19 SW 1022,4 6 0 0,1
20.02.2020 06:00:00 4,0 3,2 3,7 3,9 4,7 6,6 21 11 35 19 SSW 1022,8 6 0 0,0
20.02.2020 05:00:00 3,7 2,9 3,4 3,8 4,7 6,6 21 11 31 17 SSW 1023,1 9 0 0,0
20.02.2020 04:00:00 3,7 2,8 3,3 3,7 4,6 6,6 18 10 29 16 SSW 1023,6 10 0 0,0
20.02.2020 03:00:00 3,7 2,7 3,2 3,6 4,6 6,6 18 10 29 15 SSW 1024,2 10 0 0,1
20.02.2020 02:00:00 3,8 2,4 3,2 3,5 4,6 6,6 19 10 28 15 SW 1024,9 20 0 0,2
20.02.2020 01:00:00 4,0 1,1 3,4 3,3 4,7 6,6 16 9 26 14 SW 1025,1 35 0 0,0
20.02.2020 00:00:00 4,2 0,6 3,3 3,1 4,7 6,6 16 9 25 13 SSW 1025,3 10 0 0,0
19.02.2020 23:00:00 4,1 0,4 3,2 2,9 4,9 6,6 18 10 29 16 SW 1025,6 10 0 0,0
19.02.2020 22:00:00 3,6 -0,7 2,6 2,6 5,1 6,6 18 10 28 15 SSW 1026,1 10 0 0,0
19.02.2020 21:00:00 3,0 -1,1 0,7 2,4 5,4 6,6 9 5 21 11 SSW 1026,1 10 0 0,0
19.02.2020 20:00:00 3,8 -1,2 1,8 3,1 5,8 6,6 16 8 21 11 SW 1026,1 50 0 0,0
19.02.2020 19:00:00 4,2 -1,5 1,5 3,9 6,1 6,6 13 7 29 16 WSW 1026,1 50 0 0,0
19.02.2020 18:00:00 5,3 -2,4 3,6 5,4 6,3 6,6 26 14 45 24 W 1025,4 10 4 0,0
19.02.2020 17:00:00 6,2 -1,8 6,0 6,6 6,3 6,6 28 15 40 21 W 1024,8 10 1 0,0
19.02.2020 16:00:00 6,2 -2,5 6,2 7,9 6,1 6,6 28 15 45 24 W 1024,5 10 25 0,0
19.02.2020 15:00:00 6,6 -2,3 8,5 9,0 5,7 6,6 29 16 48 26 W 1024,1 10 50 0,0
19.02.2020 14:00:00 6,3 -1,0 8,7 7,7 5,3 6,5 30 16 44 24 W 1023,8 50 33 0,0
19.02.2020 13:00:00 5,6 -0,6 6,0 6,8 5,0 6,5 24 13 37 20 WNW 1023,8 35 39 0,0
19.02.2020 12:00:00 3,1 1,2 3,6 3,9 5,1 6,5 20 11 47 25 W 1024,0 30 9 2,0
19.02.2020 11:00:00 1,6 0,2 1,2 5,2 5,0 6,5 28 15 44 24 WNW 1023,6 3,5 14 0,1
19.02.2020 10:00:00 3,5 1,0 3,6 4,0 5,0 6,5 24 13 42 23 W 1022,2 10 9 0,1
19.02.2020 09:00:00 3,8 1,9 3,2 4,0 5,1 6,5 23 13 41 22 W 1020,7 20 5 0,0
19.02.2020 08:00:00 3,2 2,0 2,5 3,8 5,2 6,5 29 15 66 35 W 1020,0 20 0 1,3
19.02.2020 07:00:00 4,5 2,9 3,8 4,2 5,2 6,5 28 15 59 32 WSW 1019,0 10 0 0,2
19.02.2020 06:00:00 4,5 3,3 4,0 4,4 5,2 6,5 35 19 57 31 WSW 1019,0 12 0 0,8
19.02.2020 05:00:00 4,7 3,3 4,1 4,4 5,3 6,5 34 18 55 30 SW 1018,8 15 0 1,7
19.02.2020 04:00:00 4,8 3,1 4,1 4,4 5,3 6,5 29 16 44 24 SSW 1019,4 10 0 0,6
19.02.2020 03:00:00 4,8 3,2 4,1 4,3 5,3 6,5 28 15 48 26 SW 1020,8 10 0 0,7
19.02.2020 02:00:00 5,2 2,6 4,2 4,2 5,3 6,5 26 14 47 25 SSW 1021,7 10 0 0,0
19.02.2020 01:00:00 4,6 2,6 3,7 4,1 5,4 6,5 23 13 38 20 SW 1022,5 25 0 0,3
19.02.2020 00:00:00 4,7 2,3 3,6 3,9 5,5 6,5 22 12 34 18 SSW 1023,8 10 0 0,1
18.02.2020 23:00:00 5,1 1,9 3,9 4,1 5,7 6,5 22 12 36 19 SSW 1024,8 10 0 0,0
18.02.2020 22:00:00 5,0 1,8 3,9 4,2 5,8 6,5 24 13 36 19 SW 1025,4 10 0 0,0
18.02.2020 21:00:00 4,9 1,7 3,7 4,5 6,0 6,5 22 12 51 28 SSW 1025,8 40 0 0,2

tt = Température de l'air
td = dewpoint
tt 5cm = Température de l'air 5cm
tt -5cm = Température de l'air -5cm
tt -20cm = Température de l'air -20cm
tt -100cm = Température de l'air -100cm
ff = Vitesse du vent
fx = gusts
dd = Direction du vent
ppp = reduced air pressure
vv = visibility
sd = Ensoleillement
rr = Quantités de précipitations

stations d'obs. à proximité